Regional Weather Roundup
Issued by NWS

Home | Current Version | Previous Version | Text Only | Print | Product List | Glossary Off
Versions: 1 2 3 4 5 6 7 8 9 10 11 12 13 14 15 16 17 18 19 20 21 22 23 24 25 26 27 28 29 30 31 32 33 34 35 36 37 38 39 40 41 42 43 44 45 46 47 48 49 50

374
ASUS45 KSLC 261210
RWRUT

UTAH REGIONAL WEATHER ROUNDUP
NATIONAL WEATHER SERVICE SALT LAKE CITY UT
600 AM MDT MON SEP 26 2016

UTZ001>011-023>025-261300-

NORTHERN UTAH

CITY           SKY/WX    TMP DP  RH WIND       PRES   REMARKS
BRIGHAM CITY     N/A     46  44  90 N5        30.42R
HILL AFB       CLEAR     49  37  65 E15       30.41S
LOGAN          CLEAR     43  41  93 CALM      30.43S
OGDEN          CLEAR     48  39  71 S8        30.40F
PROVO AIRPORT  CLEAR     44  40  85 VRB3      30.43R
SALT LAKE CITY CLEAR     50  42  74 SE5       30.40S
VERNAL         CLOUDY    40  37  89 W5        30.45S
WENDOVER       PTCLDY    46  39  76 W3        30.41S
HEBER CITY     CLEAR     34  32  93 CALM      30.47R
WEST JORDAN    CLEAR     46  42  85 CALM      30.41S

$$

UTZ012>022-026-027-261300-

SOUTHERN/CENTRAL UTAH

CITY           SKY/WX    TMP DP  RH WIND       PRES   REMARKS
BLANDING       CLEAR     47  32  56 NE8       30.50R
BRYCE CANYON   PTCLDY    33  27  78 W12       30.51S WCI  24
CEDAR CITY     PTCLDY    41  33  73 SE6       30.41R
DELTA          CLEAR     43  39  87 NE5       30.41S
MILFORD        CLEAR     41  37  86 NE3       30.40S
MOAB/CYNLANDS  CLEAR     44  36  73 CALM      30.37S
PRICE          CLEAR     44  37  76 E5        30.42R
ST GEORGE      SUNNY     55  34  44 S5        30.29R

$$

REGIONAL REPORTS     COLORADO/ARIZONA

CITY           SKY/WX    TMP DP  RH WIND       PRES   REMARKS
CRAIG, CO      CLOUDY    30  27  88 W3        30.50S
GRAND JUNCTION CLOUDY    47  37  68 SE12      30.41S
RIFLE          CLOUDY    40  37  89 CALM      30.47S
MONTROSE       CLOUDY    40  34  79 SE6       30.48R
CORTEZ         CLEAR     37  34  89 E5        30.45R WCI  33
PAGE, AZ       CLEAR     58  33  39 SW6       30.35R
GRAND CANYON   CLEAR     54  29  38 E12       30.44R
KINGMAN        CLEAR     59  31  34 N3        30.21S
FLAGSTAFF      PTCLDY    48  31  51 E7        30.43R

$$

REGIONAL REPORTS    NEVADA/IDAHO/WYOMING

CITY           SKY/WX    TMP DP  RH WIND       PRES   REMARKS
LAS VEGAS, NV  CLEAR     68  28  22 SW5       30.17S
ELY            PTCLDY    34  27  75 S9        30.47R WCI  27
ELKO           CLEAR     43  36  76 CALM      30.41S
POCATELLO, ID  CLOUDY    39  36  89 CALM      30.43S
BURLEY         CLEAR     42  40  92 CALM      30.39S
EVANSTON, WY   CLOUDY    43  31  62 S5        30.50S
ROCK SPRINGS   CLOUDY    43  34  70 CALM      30.48R

$$




USA.gov is the U.S. government's official web portal to all federal, state and local government web resources and services.